カタログに戻る

COSMOS 1191 DEB

運用中HEO
NORAD 27898·DEBRIS·🇷🇺 Russia

打ち上げ Jul 2, 1980 から Plesetsk Cosmodrome

Loading…

次のパス (今後24時間)

TLE

最新Source: Space-Track

元期: Sep 13, 2026, 16:00 UTC

1 27898U 80057L   26256.66667851 -.00000217  00000-0  00000-0 0  9991
2 27898  64.7769  45.6182 6981617  30.2591 355.8438  1.99718998 44712

AllMySatでCOSMOS 1191 DEBをリアルタイム追跡

Download on the App Store